Wind_Speed
16 18 19 20 20 20 22 22 19 18 18 17 15 12 9 8 6 4 3 4 6 8 11 12 14 15 17 18 15 10 9 7 7 9 12 15 16 15 15 14 16 18 19 19 19 19 17 15 15 14 15 16 19 20 19 18 18 17 17 17 16 16 15 15 16 16 14 14 13 13 13 15 17 17 17 18 22 27 28 28 28 29 27 26 25
15 17 20 21 20 21 25 24 21 21 20 16 15 15 12 11 9 6 5 4 5 7 10 12 14 15 18 19 18 13 10 8 5 6 8 10 13 14 14 15 16 17 18 18 20 23 22 20 20 17 15 14 15 16 17 17 16 15 16 16 15 14 13 13 14 13 12 13 13 14 15 16 18 17 15 14 17 23 28 28 27 27 29 29 26
14 16 23 21 19 21 24 24 23 22 19 15 15 16 16 14 10 8 6 5 4 6 8 10 11 14 16 17 18 15 11 9 6 7 7 7 9 9 10 11 11 11 12 14 16 19 20 20 20 19 18 16 14 14 14 15 15 15 16 16 14 12 12 12 13 13 14 15 15 16 17 17 16 15 14 14 14 15 20 27 28 25 26 28 29
12 14 20 19 19 23 24 25 24 21 19 17 18 19 19 16 9 8 7 5 5 6 7 9 9 11 14 16 17 13 8 8 8 8 7 7 7 6 7 6 6 6 6 7 9 11 13 14 14 15 17 18 17 16 15 14 14 14 16 15 14 13 13 13 14 14 15 16 17 17 17 17 17 16 15 14 14 12 12 18 23 23 24 27 27
17 17 18 16 20 24 24 24 24 22 20 21 23 22 19 15 10 8 8 6 5 6 8 10 10 11 13 15 15 13 8 7 7 7 7 6 6 5 5 4 3 3 3 3 3 4 6 7 8 9 11 14 16 17 17 16 14 13 13 13 11 11 12 13 13 14 15 16 16 17 17 16 16 16 15 14 13 12 10 10 12 16 22 27 26
19 18 18 16 20 26 25 25 25 23 20 23 29 25 17 16 11 9 11 7 5 7 9 10 11 11 13 13 13 13 9 7 6 6 6 4 4 4 3 3 3 3 3 2 2 2 3 4 5 5 6 8 11 12 14 14 14 12 11 10 10 9 10 10 11 13 15 15 14 15 15 15 16 16 16 14 12 11 11 10 10 11 12 21 26
17 16 17 15 17 23 24 25 25 22 19 23 31 29 21 21 15 12 13 10 7 7 9 11 11 12 13 13 12 13 10 7 5 5 5 4 4 4 4 4 4 4 4 3 2 2 2 2 2 2 4 5 5 6 8 10 11 10 9 9 9 9 9 9 11 12 11 12 12 12 13 15 16 16 14 13 12 11 11 11 10 9 9 9 16
18 19 22 20 14 15 19 23 25 23 24 28 33 34 28 24 18 15 16 14 9 7 9 11 11 12 13 12 12 12 10 7 5 5 5 5 6 6 6 6 6 5 5 5 4 3 2 2 1 1 1 2 3 4 5 5 6 6 5 5 5 6 7 8 11 11 10 11 11 11 12 12 12 11 10 10 11 11 10 10 10 9 8 8 8
15 16 20 20 13 13 17 21 24 26 30 33 34 35 31 26 21 18 18 16 9 7 10 11 11 11 11 11 11 11 10 8 7 6 6 7 7 7 7 7 7 7 6 6 5 4 4 2 2 1 1 1 1 2 2 2 2 2 1 2 2 3 5 6 8 10 10 11 10 10 10 10 10 9 8 8 9 9 9 9 10 8 7 7 7
12 13 15 16 15 17 20 21 25 27 30 34 37 39 36 29 25 20 19 17 11 9 11 11 11 11 11 11 10 11 11 10 9 7 7 7 7 7 6 6 6 6 5 5 4 4 4 3 3 2 2 1 1 1 1 1 1 1 1 1 1 2 3 5 6 7 8 9 9 10 9 9 10 9 8 8 8 8 7 8 10 11 10 8 7
11 11 12 15 16 19 23 25 27 29 31 33 40 46 41 32 27 24 21 18 14 13 13 12 12 11 10 11 11 11 12 11 10 7 5 5 4 3 2 2 3 3 2 2 2 2 2 2 2 3 3 3 3 3 4 4 4 4 4 3 2 2 2 3 4 5 6 7 8 9 9 9 9 9 9 8 8 8 8 9 10 12 12 11 10
10 10 13 16 16 15 21 25 26 30 32 30 33 40 40 34 30 29 25 21 18 17 15 14 14 13 11 11 11 12 12 11 8 5 3 1 1 1 1 1 1 1 2 2 3 3 3 3 3 3 3 3 4 4 4 5 5 6 6 5 5 4 4 4 5 5 6 7 7 8 8 8 9 9 9 9 9 9 8 8 9 10 10 11 11
9 15 21 23 21 16 19 22 22 26 29 28 29 30 32 34 33 31 30 25 21 20 17 15 15 14 12 11 12 12 12 10 6 3 2 2 2 1 2 2 3 5 5 6 6 7 7 7 6 6 5 5 4 4 4 5 5 5 5 5 5 5 5 5 6 6 7 7 7 8 8 8 8 9 9 9 9 8 8 8 8 8 8 8 8
13 18 21 22 23 20 20 20 19 22 25 26 27 26 28 35 34 32 33 30 25 23 21 17 17 16 13 13 12 12 12 10 6 1 1 2 2 2 3 3 6 8 8 9 9 9 9 9 9 9 8 7 6 6 5 5 5 5 5 5 5 4 4 4 5 5 6 6 7 8 9 9 10 10 11 11 11 11 11 10 10 10 9 8 8
18 16 15 17 21 21 20 19 18 21 25 25 25 26 29 35 35 33 33 31 27 26 23 19 17 17 16 15 14 13 12 11 7 3 1 2 2 2 3 4 6 8 9 9 10 10 10 11 10 10 10 9 8 8 7 7 6 6 6 5 5 5 5 5 4 4 5 5 5 6 7 8 9 10 11 12 12 12 12 13 13 13 12 11 11
19 18 18 17 19 21 22 20 18 20 24 27 27 28 30 32 33 33 32 28 27 28 25 19 18 19 18 17 15 14 13 12 10 6 4 3 3 3 2 3 4 5 7 7 8 9 10 11 11 11 11 10 10 9 9 9 8 8 8 8 8 7 7 6 6 6 5 5 5 5 6 6 7 8 9 10 11 11 11 12 12 12 12 12 12
19 18 19 17 18 19 21 21 20 20 23 27 28 28 30 29 27 26 28 27 26 28 25 19 19 20 19 18 17 15 14 13 12 9 7 6 5 4 3 2 2 2 3 4 5 6 7 9 9 10 10 10 10 10 10 10 10 11 11 11 11 11 10 10 9 8 8 7 7 7 7 7 7 7 8 9 9 10 10 10 11 11 11 11 10
16 16 15 14 13 13 16 19 21 24 27 29 30 29 28 27 24 21 24 27 27 27 25 20 19 21 20 20 19 17 16 15 14 13 12 11 9 8 7 6 6 5 3 2 1 1 3 5 6 7 8 8 9 9 10 10 10 11 11 12 12 12 12 12 12 12 12 12 11 11 10 10 9 9 9 9 9 9 9 9 10 10 10 10 9
14 12 11 12 8 7 10 13 16 21 25 26 27 27 27 26 24 23 25 27 27 26 25 22 21 22 22 21 20 20 20 18 17 17 16 15 13 11 11 11 12 11 8 6 5 4 3 3 3 4 5 6 7 8 9 9 10 10 10 11 11 11 12 12 13 13 13 13 14 14 14 13 13 12 12 12 12 12 12 11 11 10 10 10 10
13 10 8 9 6 3 4 7 11 14 18 18 18 21 25 25 23 23 25 26 26 26 26 24 22 22 23 24 24 24 24 23 22 22 21 18 14 12 14 15 15 15 14 12 11 9 8 6 5 4 4 5 6 7 8 9 10 10 10 10 10 10 10 11 12 12 13 13 13 13 14 14 14 14 14 13 13 14 14 14 14 13 13 12 13
12 10 8 8 7 4 4 4 7 10 12 13 14 17 20 20 20 22 24 26 27 29 29 27 25 24 24 25 26 27 27 27 25 25 24 21 17 15 16 16 15 16 18 17 15 14 13 11 9 8 7 7 7 8 9 10 11 11 12 12 12 13 12 12 12 13 13 14 14 13 13 14 14 14 15 16 16 16 15 15 14 14 15 15 15
11 11 10 8 8 8 6 5 5 6 8 9 10 13 15 16 20 24 26 28 28 29 30 28 27 28 26 25 28 29 30 29 28 26 24 21 18 18 18 16 15 17 20 20 19 18 18 17 15 13 12 11 10 10 10 11 13 13 14 15 15 16 16 16 15 15 15 16 17 17 16 15 15 17 18 19 19 19 19 19 18 18 18 18 18
10 11 11 10 10 9 9 8 7 7 8 8 9 11 12 13 16 20 23 25 24 25 27 27 29 31 30 29 31 31 30 31 31 29 26 22 19 20 22 20 18 20 21 21 21 20 20 20 17 16 15 14 12 12 12 13 14 15 16 17 18 19 20 20 20 19 17 17 17 19 18 18 18 20 21 20 19 19 19 19 20 21 21 22 21
11 12 12 13 13 12 12 11 10 10 10 10 11 14 15 15 16 17 18 20 21 21 24 27 29 31 31 30 30 30 30 31 32 31 30 27 23 23 26 25 24 22 22 23 24 21 21 22 20 19 19 18 16 15 14 14 15 16 17 17 19 21 22 22 22 22 21 20 19 19 20 20 20 22 23 22 21 20 20 21 21 22 23 24 25
12 11 12 13 15 15 14 13 13 14 13 13 14 17 21 21 23 25 25 25 25 22 23 27 28 30 31 31 30 30 29 29 30 32 31 30 28 27 28 29 29 27 25 27 27 24 22 22 22 21 21 20 19 19 16 15 15 17 18 19 20 21 22 23 23 23 23 24 23 22 22 22 22 23 24 25 25 25 25 25 25 25 25 26 27
12 12 12 13 15 16 15 14 15 15 16 18 19 19 21 23 25 27 29 31 31 28 27 27 27 28 30 32 33 33 31 28 28 29 30 29 29 29 30 32 36 38 35 32 31 29 26 26 24 21 18 19 21 22 21 18 17 18 19 21 22 23 23 25 25 24 24 25 25 25 25 25 24 25 26 27 28 29 30 30 29 28 27 27 28
13 15 16 16 17 18 17 16 17 18 18 19 21 21 21 22 24 24 26 27 29 30 29 29 29 30 31 33 35 35 33 30 26 26 26 28 29 30 30 32 37 40 36 31 30 29 28 26 23 19 18 20 23 24 24 24 22 21 20 21 23 25 26 27 27 26 27 27 26 26 26 27 27 28 29 29 30 32 32 32 32 31 30 30 30
15 18 20 22 23 22 21 20 18 19 20 19 20 21 20 20 21 21 21 21 21 23 26 30 33 35 36 36 36 37 36 34 31 30 30 31 33 35 36 35 34 31 28 26 27 28 27 25 22 19 20 23 25 26 27 28 29 27 24 22 23 26 28 29 29 28 29 30 29 28 28 28 28 30 31 31 32 33 34 34 34 33 32 32 33
12 13 17 21 26 26 26 25 23 20 20 20 19 19 19 18 17 17 17 17 18 19 21 25 29 33 36 36 37 38 36 35 34 34 34 35 37 39 41 40 35 31 28 27 28 29 28 26 23 20 21 24 25 27 29 30 30 29 28 26 25 27 29 31 32 32 32 32 32 31 31 30 30 31 32 33 34 35 35 35 35 35 34 34 35
13 14 16 16 21 25 26 27 27 25 23 21 20 19 19 18 17 17 17 18 19 19 20 21 22 24 28 31 34 35 33 31 31 32 33 33 33 32 33 32 30 28 27 26 27 28 27 26 24 23 24 25 27 28 29 29 29 31 32 29 27 28 29 32 34 35 36 36 35 35 36 35 34 34 34 35 36 37 37 37 36 36 35 36 37
17 18 19 17 18 22 25 25 26 27 26 24 22 21 21 20 20 20 20 20 20 20 21 22 21 21 23 24 26 26 25 27 27 26 26 27 27 27 26 26 26 25 24 25 26 27 27 27 27 27 27 28 30 30 29 27 28 31 33 32 31 30 29 30 33 36 38 40 39 39 39 39 38 38 37 36 37 39 38 37 35 35 35 37 38
19 19 21 21 18 17 21 24 25 26 27 26 23 23 25 24 21 22 22 22 21 20 21 22 23 24 26 26 27 27 28 29 28 25 25 26 26 27 26 26 27 27 27 27 27 29 30 30 31 30 31 31 32 32 29 26 28 30 32 33 34 33 31 31 34 37 39 40 40 40 40 41 41 40 39 39 40 41 39 37 35 34 35 36 37
19 19 20 21 19 15 15 18 22 24 26 26 24 25 28 26 22 21 23 23 22 23 23 24 25 27 29 31 32 33 33 33 31 29 28 27 26 25 25 25 27 28 29 29 29 30 32 33 34 34 35 34 33 31 28 27 28 29 31 33 34 33 32 32 34 36 37 36 37 38 40 41 40 38 38 41 43 42 41 40 38 37 37 38 38
18 17 20 21 21 21 17 14 17 20 22 23 24 26 28 26 22 22 23 22 23 25 25 26 26 27 28 30 31 31 32 32 32 31 29 28 26 25 25 26 27 28 30 31 31 31 31 31 33 35 36 35 32 29 27 28 29 30 31 33 32 33 34 35 35 36 35 35 35 37 40 41 39 37 39 42 43 42 42 42 41 41 40 40 40
20 19 21 23 24 25 22 18 18 20 20 21 23 26 26 25 24 25 24 21 21 23 24 24 24 24 24 24 26 26 26 25 26 26 26 26 27 28 29 29 30 30 30 31 32 32 31 30 30 32 35 34 31 28 27 28 30 31 30 30 31 33 35 36 36 35 34 35 36 38 40 41 39 39 41 42 41 41 41 42 43 43 42 42 43
22 22 23 26 26 26 25 24 22 20 19 19 23 28 28 26 25 26 25 22 21 21 22 23 23 22 22 23 24 24 23 23 24 24 25 26 26 27 28 29 30 30 30 29 30 30 30 30 30 32 33 32 30 28 27 28 30 31 30 30 32 33 34 35 35 35 35 36 37 39 40 40 39 40 41 41 40 39 40 42 43 43 42 43 43
21 23 27 30 29 27 27 27 24 21 22 23 24 28 29 26 25 25 25 24 24 22 22 24 24 23 24 26 26 26 26 27 27 27 27 27 27 27 27 28 29 29 28 28 28 28 29 30 31 31 31 30 30 28 28 28 29 29 29 31 33 34 35 35 36 36 37 38 39 40 40 38 38 40 41 40 39 39 40 42 43 43 43 43 42
15 16 20 22 20 19 23 23 19 17 22 26 26 28 28 26 25 25 26 26 26 23 23 25 26 25 25 27 28 28 29 29 29 29 29 29 28 28 27 27 27 26 26 26 26 27 28 29 28 27 28 29 29 29 29 29 29 28 29 31 34 35 35 36 37 39 40 40 39 40 39 37 39 41 41 40 39 39 40 41 42 43 44 44 44
10 8 10 11 11 14 17 16 14 14 18 23 26 28 29 28 27 28 28 28 28 26 26 27 28 27 27 27 29 30 30 31 31 30 30 29 28 28 27 27 27 26 26 26 26 28 29 29 26 25 26 27 27 28 29 30 30 30 30 31 33 35 35 36 38 40 41 39 39 40 41 40 41 41 40 39 40 41 41 42 42 44 45 46 46
12 9 10 13 16 18 16 11 11 13 14 16 20 23 27 28 28 29 31 30 30 29 29 29 30 30 29 29 29 30 32 33 34 32 31 29 28 28 28 28 28 28 28 28 29 31 32 30 28 27 28 28 28 27 28 29 30 31 31 31 33 34 34 34 36 38 39 39 41 43 43 41 40 39 39 40 42 43 43 43 45 46 47 48 48
14 13 15 18 20 19 16 12 12 14 16 16 17 19 23 27 29 31 32 31 31 31 31 31 31 31 30 29 29 30 32 34 35 35 34 32 31 31 31 30 30 29 29 30 32 33 33 32 31 30 30 29 28 28 28 29 30 31 30 30 30 30 31 33 35 36 38 39 40 41 40 39 38 39 41 42 43 44 44 46 47 48 49 49 49
16 17 18 19 19 18 17 15 15 17 18 19 20 20 21 24 28 31 33 33 33 33 33 34 34 33 33 32 31 31 33 34 35 34 35 36 36 34 32 31 30 29 30 32 33 33 33 33 33 31 30 29 29 29 29 29 30 31 30 28 27 28 30 33 36 37 38 38 38 38 39 39 39 40 41 42 43 44 45 46 47 48 48 48 48
20 19 18 19 20 20 18 18 19 20 19 20 22 24 24 25 27 30 32 34 35 36 36 37 36 36 36 36 36 36 37 38 38 36 36 38 38 35 32 32 32 32 32 33 33 33 33 34 33 32 31 30 30 30 30 30 30 30 28 27 27 28 30 33 35 37 38 37 37 38 40 39 40 40 41 42 43 44 45 46 46 46 46 46 47
21 21 21 22 22 22 21 21 23 23 23 22 23 24 27 29 31 31 32 32 33 34 36 37 38 39 40 40 41 41 41 41 41 39 39 40 39 36 34 34 34 35 36 35 35 35 35 35 35 34 33 32 32 32 31 30 29 28 27 27 28 29 31 32 33 34 35 35 36 37 38 38 39 40 41 42 42 43 43 44 44 45 46 47 47
26 25 25 25 26 25 24 25 25 26 26 27 27 28 29 31 33 32 32 32 32 31 32 34 37 40 41 41 42 42 43 44 43 42 42 42 42 41 40 39 38 37 38 38 38 38 37 37 36 35 33 32 33 33 32 29 27 27 27 28 29 31 33 34 34 34 34 34 35 35 35 36 37 38 39 40 40 40 41 42 44 45 47 48 49
30 29 28 27 28 28 28 29 29 29 28 28 29 30 30 30 31 30 30 31 32 32 33 35 38 40 41 40 40 41 42 42 43 43 43 43 43 45 44 42 40 39 38 39 39 38 38 38 38 36 34 32 33 32 29 27 26 26 27 28 30 32 35 35 34 33 32 31 31 32 32 33 35 36 37 38 38 39 41 43 44 45 47 48 49
29 30 29 29 31 31 31 31 32 31 31 31 31 31 31 30 31 31 30 30 32 33 34 35 37 40 42 42 42 41 41 42 43 42 41 41 43 45 43 41 39 38 37 37 37 36 37 38 37 35 33 31 30 28 26 25 25 26 26 27 29 32 33 31 29 28 28 28 29 29 30 31 32 34 36 37 39 41 43 44 45 46 47 48 49
30 29 30 32 34 35 33 33 33 33 32 31 32 34 34 34 32 31 29 29 30 31 32 32 34 35 36 38 38 36 36 38 40 40 39 40 41 41 40 39 39 38 37 36 34 34 35 36 35 33 30 28 27 25 24 24 25 25 25 26 28 31 30 28 26 25 26 26 26 27 28 30 32 34 36 38 41 42 44 45 46 48 48 49 49
31 32 33 34 37 37 34 32 33 36 36 35 36 37 38 38 36 33 31 32 33 33 34 35 35 35 36 37 36 34 33 35 38 39 37 36 35 35 36 36 36 35 34 33 31 31 32 33 31 30 28 25 23 22 22 23 24 24 25 27 29 29 28 25 23 23 23 24 25 27 29 31 33 35 37 39 40 42 44 45 46 47 47 48 48
35 37 37 36 38 40 40 37 37 39 41 41 41 40 40 40 39 38 37 38 40 41 41 41 41 42 42 40 37 35 34 34 35 35 32 29 30 32 32 32 32 31 31 30 28 28 29 28 26 24 24 22 20 20 21 23 23 25 26 27 26 24 22 20 20 21 22 24 26 28 30 32 34 35 37 38 40 41 43 43 44 45 45 45 45
37 38 39 40 39 40 42 42 41 40 41 42 42 41 40 41 41 41 41 43 43 44 44 43 42 42 41 38 35 34 33 32 32 31 29 27 28 29 29 30 29 28 28 28 27 26 26 24 22 22 22 21 20 20 22 23 24 25 26 24 21 18 17 18 19 21 23 25 27 29 30 32 33 34 36 37 38 40 41 42 42 42 42 42 42
Wind_Direction
229 211 225 234 234 232 221 217 225 233 241 246 235 224 219 215 228 245 264 298 319 326 335 342 349 356 355 354 350 326 302 287 269 251 238 240 244 243 245 252 255 256 256 256 259 259 255 258 262 260 257 252 250 249 249 251 252 252 251 249 252 254 254 256 259 263 264 265 274 285 286 284 286 289 287 275 261 251 246 246 244 242 244 245 242
247 219 218 231 236 235 228 225 229 233 241 243 220 213 219 218 229 252 256 262 295 315 329 339 348 353 351 349 345 330 310 302 287 274 260 248 247 246 247 250 252 256 258 258 259 260 260 257 253 257 264 259 251 247 246 247 246 242 242 244 247 250 250 253 254 254 259 269 277 284 289 288 286 287 287 282 273 259 250 246 244 242 242 242 241
249 208 205 226 239 235 231 231 231 230 237 239 212 207 219 224 236 254 252 249 273 297 316 330 341 346 348 345 338 332 322 317 304 288 282 267 262 258 259 261 259 259 256 253 252 253 256 254 250 253 258 259 257 253 250 248 243 239 242 246 249 251 253 254 252 252 261 273 280 286 289 289 287 283 278 279 283 277 260 248 242 241 242 242 240
245 225 224 237 240 237 235 232 232 229 229 228 211 210 221 231 252 258 240 236 255 275 294 313 329 336 340 340 335 330 312 304 304 295 290 283 284 281 277 279 276 271 261 252 246 243 248 251 251 250 252 256 259 258 256 252 247 243 246 250 251 254 256 254 254 258 262 269 278 283 282 283 284 281 279 278 277 285 286 258 243 239 240 243 242
261 264 264 254 230 233 239 233 235 234 233 227 212 210 221 237 262 257 235 226 242 269 286 300 314 323 332 338 334 326 302 289 299 298 296 292 292 295 290 290 291 289 285 269 251 240 241 243 244 244 248 251 252 253 253 254 254 250 248 248 247 251 255 255 256 259 260 265 272 276 275 276 279 282 283 281 273 275 293 290 272 258 245 241 241
266 267 278 272 236 234 237 234 234 233 238 232 213 208 226 247 259 246 240 242 240 267 282 289 302 313 323 332 330 324 307 287 300 308 307 304 296 296 295 297 308 309 309 302 280 257 250 247 243 234 237 243 246 249 248 250 253 249 246 240 236 239 244 251 252 252 258 263 264 267 270 269 274 280 279 277 272 268 276 289 302 302 269 245 239
267 264 269 269 244 241 237 231 234 234 242 236 215 213 237 253 255 242 245 257 246 258 279 283 294 307 315 325 326 326 322 305 310 324 324 325 313 303 303 307 312 312 315 311 302 289 267 269 266 229 220 228 233 235 233 238 243 245 244 238 233 231 229 233 234 237 249 255 256 264 269 267 270 274 273 272 269 266 273 280 291 313 320 284 251
262 263 265 265 255 250 241 234 238 241 248 242 219 219 240 252 255 245 241 251 246 248 274 277 287 301 308 318 323 325 327 317 306 311 315 313 303 298 299 300 303 304 305 301 292 289 279 278 287 249 203 202 203 210 220 226 232 239 243 246 243 232 226 221 218 223 233 241 247 259 261 257 261 269 273 272 266 266 271 275 284 297 311 321 304
242 245 258 267 265 254 250 245 241 235 240 239 221 223 240 244 247 246 236 241 240 240 267 273 279 292 297 307 318 321 321 312 300 291 289 293 290 290 293 294 299 301 297 291 285 281 279 283 295 315 22 123 161 188 219 221 220 221 218 245 247 229 232 227 223 229 236 238 238 244 247 243 245 257 265 265 265 271 270 262 268 278 281 290 308
227 233 246 261 261 255 259 258 252 241 234 230 222 229 242 239 238 242 235 236 239 241 256 265 270 276 284 297 308 315 316 311 306 296 284 289 292 294 298 301 306 307 301 293 284 277 275 278 287 302 327 348 2 354 321 324 319 321 333 315 274 228 237 240 243 247 250 252 251 252 253 247 248 256 261 264 263 263 261 258 259 260 263 266 276
238 244 248 258 256 250 250 249 251 251 244 235 228 230 233 230 232 234 234 237 240 246 249 254 262 264 271 287 294 305 312 311 313 311 297 298 305 308 322 327 323 321 325 324 312 308 298 290 294 307 321 331 334 335 334 334 335 335 336 335 327 299 271 259 261 261 260 265 266 268 269 261 261 266 266 270 268 262 264 269 271 268 266 269 273
238 237 228 228 224 232 246 245 244 248 250 249 241 231 224 227 233 230 233 238 237 245 249 245 253 254 255 271 281 295 306 308 316 332 342 11 39 38 64 61 56 65 58 59 56 50 47 35 26 11 358 355 348 345 344 339 337 336 333 332 325 310 299 284 275 273 271 270 269 273 278 274 272 273 272 274 275 274 278 280 284 287 282 281 283
225 235 232 226 223 235 253 257 254 247 244 248 251 241 230 235 239 231 232 238 236 242 245 242 247 245 243 254 267 284 294 294 301 347 36 84 102 86 108 115 100 97 87 80 75 68 67 63 60 54 45 38 26 16 8 360 354 350 344 338 331 320 312 299 289 284 280 279 277 277 281 280 278 280 281 283 285 285 287 290 296 300 300 299 298
216 235 244 240 241 247 253 258 259 245 238 241 246 244 238 237 235 229 232 235 234 237 238 239 241 236 235 242 254 271 282 282 276 289 61 108 122 107 117 113 101 95 89 86 82 77 75 72 72 69 64 61 55 47 40 32 28 22 17 8 359 352 344 331 320 310 301 296 292 288 287 285 283 284 284 283 285 286 285 284 287 290 295 298 299
231 251 264 254 249 250 251 251 245 234 230 232 237 239 239 234 224 221 228 231 230 233 235 233 230 230 232 236 244 257 269 272 263 235 156 145 138 130 123 111 100 91 87 85 82 80 77 73 72 70 68 66 61 56 50 47 46 45 45 42 37 36 30 23 18 7 353 340 327 319 311 301 295 290 288 286 284 284 284 283 283 283 283 284 285
247 263 270 266 260 255 254 250 236 225 225 233 243 245 241 236 224 217 218 223 227 232 232 222 219 228 232 234 239 246 256 264 258 240 219 203 176 164 157 127 115 98 89 83 76 77 76 73 70 66 64 61 58 55 49 45 44 43 44 43 40 39 38 36 34 30 24 14 3 355 344 333 326 316 307 304 300 297 293 291 290 289 285 282 280
257 264 265 268 266 258 254 247 235 226 227 237 245 245 241 240 233 218 210 218 228 231 230 219 217 228 229 229 234 238 247 255 254 248 241 241 238 224 231 238 204 149 108 85 72 68 65 68 67 63 60 54 50 48 44 41 38 36 36 34 33 30 27 25 24 22 19 13 7 1 355 349 345 339 330 324 319 316 312 307 305 302 299 294 287
262 265 264 263 264 259 249 242 239 236 234 233 231 235 242 239 234 225 217 226 232 228 224 217 215 221 222 225 229 231 240 247 252 254 251 251 256 253 256 265 263 247 214 195 157 57 35 41 47 49 49 45 41 37 34 32 29 28 27 25 25 23 20 17 15 13 10 8 5 360 357 352 346 343 338 333 327 322 317 314 312 309 307 303 296
266 268 265 255 255 269 253 244 248 242 236 233 227 232 240 231 224 223 221 231 237 227 218 211 210 216 218 221 225 227 233 239 243 249 252 250 251 257 263 265 267 264 249 238 238 239 262 303 336 3 10 14 18 16 14 13 11 11 11 11 12 11 11 9 8 7 5 3 1 358 356 352 349 345 341 336 331 327 322 316 311 306 303 299 295
263 265 265 254 246 290 288 256 250 239 233 233 228 231 234 224 215 214 216 225 231 223 215 209 207 213 217 220 223 226 231 236 238 241 246 244 240 251 261 263 265 267 263 256 250 246 249 259 268 285 313 329 338 342 344 344 345 347 348 348 350 351 354 356 356 357 356 356 355 353 351 348 346 343 339 336 332 328 323 317 312 307 301 296 293
260 262 267 266 256 274 311 294 260 246 241 242 236 231 229 218 212 217 223 227 224 217 216 212 207 210 216 221 226 228 230 235 238 240 245 248 243 244 250 255 260 266 269 267 261 256 254 253 257 262 270 282 296 307 313 318 320 321 324 326 327 327 329 330 333 334 336 336 336 337 337 337 338 337 334 331 328 325 321 315 309 303 298 293 290
264 271 271 271 264 262 277 300 297 272 256 253 246 235 229 222 219 221 229 233 224 215 215 215 215 217 218 223 227 230 232 235 238 242 248 255 257 252 247 244 250 261 267 269 268 265 260 257 259 262 265 270 276 282 286 293 300 303 305 307 309 310 311 311 313 315 318 321 321 322 324 325 328 330 329 325 322 322 322 320 316 311 307 301 296
267 273 275 278 277 269 265 273 290 288 262 239 232 235 237 235 228 225 231 235 228 221 220 219 221 224 224 225 227 230 233 235 238 240 244 249 255 258 256 252 251 254 257 262 266 266 264 264 265 267 272 276 279 282 282 281 283 285 289 295 297 299 300 302 303 306 311 314 314 313 313 314 318 322 324 321 315 313 313 314 314 312 310 307 303
267 272 277 278 279 277 271 266 269 278 271 244 233 240 242 239 237 239 244 247 244 239 232 225 226 229 229 229 232 234 236 238 240 241 245 248 248 252 258 259 254 248 247 255 259 258 259 263 266 272 279 282 283 289 291 285 280 279 280 284 288 291 294 296 298 302 308 313 313 311 308 308 310 315 321 323 319 314 310 308 308 309 308 307 305
254 263 270 273 277 278 276 270 264 263 264 257 248 245 242 240 243 246 250 254 255 250 238 232 232 232 231 233 236 237 240 243 245 247 251 253 253 253 255 258 259 255 250 250 251 250 254 259 261 266 276 282 286 292 293 287 282 282 282 281 282 285 287 290 293 297 303 309 311 312 311 309 308 311 318 323 323 320 316 312 308 307 307 306 304
244 251 258 265 270 273 273 271 265 257 252 252 251 246 241 239 241 244 246 249 251 249 244 240 239 236 234 236 237 238 241 243 245 250 255 259 262 262 260 260 264 263 257 253 254 252 256 261 258 258 271 283 287 289 290 290 287 285 285 285 284 284 284 285 288 292 298 303 305 307 309 308 306 306 310 316 319 319 317 314 309 306 306 306 304
238 247 255 260 264 269 272 269 266 260 252 248 248 247 242 238 237 240 243 246 248 249 247 246 247 245 243 242 242 243 244 244 246 251 256 262 266 268 268 269 269 264 257 259 265 265 268 273 271 271 282 290 291 289 288 292 295 295 291 287 285 285 285 284 284 288 293 297 298 299 301 302 302 300 301 307 313 314 314 314 310 306 303 305 306
232 250 258 261 261 265 269 266 262 260 257 252 248 247 245 241 240 239 239 241 245 248 247 247 248 247 245 246 248 249 250 250 250 251 254 259 263 268 271 272 270 267 266 273 280 281 282 281 279 280 283 285 289 290 289 291 293 295 295 292 287 285 285 284 283 285 289 292 294 294 294 295 296 295 296 301 308 310 310 311 310 306 304 304 306
224 238 247 257 260 260 263 264 262 259 259 257 252 249 249 249 249 250 250 248 247 248 248 247 247 245 245 246 247 249 251 253 254 255 257 260 264 268 271 268 266 271 277 281 282 284 284 280 278 278 278 279 283 287 291 290 289 291 294 295 294 288 284 284 284 284 286 287 289 290 290 291 291 291 293 297 303 307 308 308 307 304 303 303 305
236 234 236 247 256 260 261 261 262 263 262 261 258 256 257 258 260 262 264 264 262 261 260 258 256 253 251 250 249 250 254 257 260 263 264 266 267 269 270 269 268 271 275 276 278 280 281 281 279 274 273 277 280 283 287 287 287 291 293 294 296 292 284 281 282 282 284 286 286 286 287 289 289 289 291 294 299 303 305 305 304 301 300 301 302
242 246 244 241 250 263 263 260 262 265 266 268 268 266 263 263 266 269 270 271 269 267 265 264 264 261 259 258 256 256 259 262 262 263 266 268 267 266 269 272 274 275 276 277 279 281 281 281 278 273 272 276 277 277 279 281 284 290 291 291 292 290 284 281 279 279 281 284 285 285 287 290 290 288 287 290 294 298 301 301 300 299 298 300 301
240 248 246 240 243 257 263 263 264 266 267 269 274 276 273 271 270 271 271 271 268 263 262 263 262 260 259 259 260 262 266 266 264 264 266 267 266 266 269 273 277 278 279 278 278 279 280 281 279 276 275 275 274 274 275 276 278 282 284 285 286 287 286 284 281 280 279 281 284 287 288 291 291 286 282 286 292 295 297 297 296 295 296 298 300
244 246 239 234 233 235 247 260 264 267 269 272 279 283 281 281 279 271 267 266 263 260 259 259 259 258 258 259 259 261 264 265 265 266 267 268 269 272 273 275 278 280 280 280 277 274 273 274 275 275 273 273 272 272 274 275 275 277 278 280 282 284 284 282 280 280 281 283 286 287 287 290 290 285 281 286 292 295 296 296 294 293 293 295 296
239 240 233 227 226 225 228 245 255 262 272 279 283 282 282 285 284 274 268 266 263 263 262 261 260 260 260 259 259 258 259 262 264 265 265 266 270 275 278 280 282 283 283 282 280 277 273 270 270 271 272 273 272 271 273 274 274 274 274 277 280 280 279 277 276 278 282 285 284 284 285 287 287 285 284 288 291 294 297 298 296 295 295 294 295
234 236 229 219 219 222 226 238 250 263 273 277 278 278 280 285 282 277 275 271 265 265 267 267 265 262 261 260 259 260 263 266 269 270 271 272 273 276 279 281 282 282 281 279 277 276 274 270 268 268 270 272 273 272 272 271 271 272 274 275 276 275 275 276 278 282 285 284 281 281 284 285 284 284 286 289 290 293 297 298 297 296 295 295 295
240 240 224 213 216 220 226 238 250 263 267 263 266 272 277 281 279 277 276 269 261 261 263 265 264 262 262 263 264 268 273 276 277 278 278 278 278 278 279 279 280 280 279 278 276 274 273 269 267 267 269 272 274 275 273 271 272 273 273 272 273 276 277 280 284 286 286 283 281 281 282 282 281 282 284 286 288 290 294 294 293 292 293 293 294
239 241 230 221 221 222 231 248 260 264 259 253 260 268 273 276 274 270 267 262 260 260 258 259 261 261 263 267 271 277 280 281 281 281 279 279 279 279 279 279 279 278 278 277 276 274 272 269 267 268 270 272 274 274 273 270 270 270 269 269 273 276 278 281 284 285 284 284 283 279 278 279 280 282 285 285 287 289 292 292 291 291 292 293 294
231 237 235 229 227 227 235 250 259 262 258 254 255 260 263 266 264 259 256 255 256 256 254 256 261 263 265 271 276 281 284 285 284 280 279 279 279 280 280 279 278 278 278 277 276 274 271 271 273 274 274 273 274 273 270 268 268 268 266 267 270 273 275 279 281 282 283 284 282 279 279 281 283 286 286 285 287 290 290 290 291 291 292 292 293
240 252 254 252 262 260 249 242 238 249 260 257 252 251 254 257 258 254 252 252 252 252 253 257 261 264 267 272 277 282 286 286 284 281 279 278 278 278 279 278 278 279 280 281 281 276 273 274 279 281 281 281 279 274 270 268 269 269 266 264 267 269 271 274 277 279 279 280 281 283 286 286 285 285 285 285 289 291 290 291 292 292 292 292 292
240 253 258 252 258 264 262 252 249 260 267 261 255 250 248 250 253 253 253 253 254 255 257 259 261 263 267 272 277 283 286 286 284 282 280 278 279 280 279 279 280 282 284 285 283 279 278 279 282 284 286 286 283 277 274 271 269 268 266 264 264 265 267 270 274 277 278 279 282 286 286 284 282 283 286 289 292 292 292 293 293 293 293 293 292
231 238 248 246 247 252 257 260 259 258 254 252 254 254 251 251 252 253 255 256 257 258 259 260 262 264 266 270 275 279 282 284 285 284 282 282 283 283 282 281 281 281 281 280 280 280 282 283 284 284 285 283 280 278 277 274 270 268 266 265 265 267 270 273 275 276 277 279 282 283 282 280 280 285 289 291 292 292 293 294 294 295 295 294 293
239 241 248 250 248 249 255 264 266 263 263 263 261 257 255 254 253 254 256 256 258 261 262 264 266 267 268 270 274 276 279 281 281 281 282 284 286 286 284 281 278 277 276 277 278 281 284 284 283 282 279 275 273 274 275 275 273 270 269 268 269 271 273 274 275 276 277 278 278 278 278 278 282 286 289 290 290 292 293 293 293 293 293 292 292
260 259 259 261 260 257 257 263 264 260 258 262 264 262 260 258 256 257 258 259 260 263 265 266 267 269 272 274 277 278 280 280 279 279 281 284 285 285 282 277 274 274 276 279 282 284 284 283 281 279 275 272 271 273 274 274 274 274 273 271 270 270 270 271 273 275 275 274 275 276 278 281 285 287 287 288 290 291 292 292 293 293 293 293 293
271 269 266 265 265 263 261 261 261 258 254 255 259 261 261 259 257 257 260 261 262 262 264 267 269 271 273 275 277 278 278 278 278 278 280 283 285 284 281 276 274 274 277 280 283 284 284 282 280 277 275 273 273 274 274 275 277 277 277 275 274 274 273 273 273 273 273 273 274 276 279 281 284 286 288 290 293 294 295 295 295 296 296 296 296
269 270 268 266 265 266 265 263 260 259 258 258 255 251 252 255 257 257 259 260 261 263 266 269 272 272 273 275 277 277 277 277 278 278 280 283 285 284 282 280 278 277 277 279 281 283 283 280 277 275 272 272 274 275 277 279 280 279 279 279 280 280 278 274 272 270 269 271 273 275 277 280 284 287 291 293 294 295 296 296 296 297 296 296 296
274 273 272 272 271 271 272 271 268 263 260 259 255 251 253 258 260 259 259 259 259 262 265 268 271 272 274 274 274 275 276 278 278 278 281 282 282 281 281 281 279 278 278 279 282 283 281 277 274 272 271 271 274 276 279 282 282 282 282 281 281 280 276 271 268 268 270 273 276 279 282 285 287 289 291 292 294 295 295 294 294 294 293 293 293
276 275 274 273 272 270 269 269 270 270 267 264 260 254 252 255 256 256 258 261 262 265 268 272 274 274 274 273 273 274 276 276 275 275 276 274 275 277 278 277 276 276 277 278 279 278 274 271 270 270 269 270 272 275 280 283 283 283 282 281 281 280 277 273 273 276 279 282 284 286 287 289 290 291 293 295 296 295 295 294 294 294 293 294 294
272 273 272 270 267 264 263 262 260 260 262 263 260 255 253 255 256 256 257 261 265 267 268 269 270 271 272 274 275 275 274 273 274 274 271 267 268 272 272 271 272 274 274 273 272 270 267 267 267 266 266 267 270 274 279 280 279 278 277 278 280 279 276 274 276 280 283 285 288 290 292 294 295 296 296 297 296 296 297 297 297 297 297 296 296
266 265 265 265 262 259 258 258 255 253 254 254 255 257 259 260 260 258 256 255 255 256 256 257 260 264 270 275 277 275 270 269 272 274 271 266 266 267 267 268 269 270 270 268 266 266 267 268 267 264 264 266 269 272 274 274 274 274 275 276 276 275 274 275 278 283 287 290 292 295 296 296 295 295 296 296 297 298 298 298 298 297 297 296 296
263 258 257 258 257 255 255 257 258 258 257 257 258 261 263 263 262 262 262 261 259 258 258 258 261 266 271 274 275 274 271 267 266 267 267 265 264 264 265 267 267 266 266 267 267 267 267 265 263 261 262 265 266 266 267 269 271 273 274 275 274 274 276 281 285 289 292 294 295 295 294 294 294 295 297 297 298 298 298 298 299 299 298 298 297
267 262 258 258 259 259 260 262 264 264 263 263 263 263 262 262 261 260 260 262 263 264 263 263 264 267 269 269 269 269 268 265 263 263 262 260 260 261 263 266 266 263 262 265 266 262 257 253 252 254 257 257 257 258 262 267 269 269 269 270 272 276 282 287 291 294 295 294 294 293 293 294 295 297 298 299 300 302 303 303 303 302 301 300 299
Height
3109 3112 3114 3113 3112 3113 3115 3115 3116 3118 3119 3121 3121 3122 3123 3125 3125 3125 3125 3124 3124 3124 3124 3124 3123 3123 3122 3122 3121 3120 3120 3121 3121 3122 3123 3123 3123 3124 3125 3125 3125 3124 3125 3125 3125 3125 3127 3129 3130 3130 3131 3132 3132 3132 3133 3134 3135 3136 3136 3136 3136 3137 3138 3139 3140 3142 3143 3143 3143 3143 3144 3144 3144 3144 3144 3145 3146 3146 3146 3146 3147 3147 3148 3148 3149
3106 3108 3111 3112 3111 3111 3113 3114 3115 3116 3118 3119 3120 3122 3123 3124 3125 3124 3124 3123 3123 3123 3123 3123 3123 3123 3122 3121 3120 3120 3119 3120 3121 3121 3122 3122 3122 3123 3123 3124 3124 3124 3124 3124 3124 3123 3124 3127 3129 3129 3129 3130 3129 3130 3131 3131 3132 3133 3134 3135 3135 3135 3137 3138 3139 3140 3142 3142 3142 3141 3141 3141 3141 3142 3142 3143 3143 3143 3143 3144 3144 3144 3145 3146 3147
3103 3105 3107 3109 3110 3110 3110 3112 3114 3115 3116 3118 3119 3121 3122 3123 3124 3124 3123 3123 3123 3123 3123 3123 3123 3123 3123 3122 3121 3120 3119 3119 3120 3121 3121 3121 3121 3122 3122 3122 3122 3123 3123 3123 3123 3122 3123 3124 3126 3127 3127 3127 3127 3127 3128 3129 3130 3131 3132 3133 3134 3134 3135 3136 3137 3138 3139 3140 3140 3140 3139 3139 3139 3139 3140 3141 3141 3141 3140 3141 3141 3142 3142 3143 3144
3103 3105 3105 3107 3108 3108 3108 3110 3112 3113 3114 3115 3117 3119 3120 3121 3123 3123 3122 3123 3123 3123 3123 3123 3123 3123 3124 3123 3122 3121 3120 3120 3120 3120 3120 3120 3120 3121 3121 3121 3121 3121 3121 3121 3122 3122 3122 3122 3123 3124 3124 3124 3124 3124 3125 3126 3127 3129 3130 3131 3131 3132 3133 3134 3135 3136 3136 3137 3137 3137 3137 3136 3137 3137 3138 3139 3139 3138 3138 3138 3139 3140 3141 3141 3142
3102 3104 3104 3105 3105 3105 3107 3109 3111 3112 3113 3113 3114 3116 3118 3120 3121 3121 3121 3122 3123 3123 3122 3122 3122 3123 3123 3123 3122 3121 3120 3120 3119 3119 3119 3120 3120 3120 3120 3120 3120 3120 3120 3120 3120 3120 3120 3120 3121 3121 3121 3121 3121 3122 3123 3124 3125 3127 3128 3128 3129 3130 3130 3131 3133 3133 3134 3134 3134 3135 3135 3135 3135 3136 3136 3137 3137 3136 3136 3137 3138 3139 3139 3140 3141
3099 3102 3102 3103 3103 3103 3106 3108 3109 3111 3111 3112 3112 3113 3116 3119 3120 3120 3119 3121 3122 3122 3122 3122 3122 3122 3123 3123 3122 3121 3120 3119 3119 3119 3119 3119 3119 3119 3120 3119 3119 3119 3119 3119 3119 3119 3119 3119 3119 3119 3120 3120 3120 3120 3121 3122 3123 3124 3125 3126 3127 3128 3129 3130 3131 3131 3132 3132 3133 3133 3134 3134 3135 3135 3134 3134 3134 3135 3135 3136 3137 3137 3137 3137 3138
3097 3099 3100 3103 3104 3104 3105 3106 3107 3109 3110 3110 3111 3111 3114 3117 3118 3118 3118 3119 3121 3121 3122 3121 3121 3121 3121 3122 3121 3120 3119 3118 3118 3118 3118 3119 3119 3119 3119 3119 3119 3119 3119 3118 3118 3118 3118 3118 3118 3118 3118 3119 3119 3119 3120 3120 3121 3121 3123 3124 3125 3126 3127 3128 3129 3130 3130 3131 3131 3132 3133 3133 3134 3133 3133 3132 3132 3133 3133 3134 3135 3135 3135 3134 3135
3098 3097 3097 3100 3102 3103 3103 3103 3103 3106 3108 3109 3109 3110 3112 3114 3116 3117 3117 3118 3120 3120 3121 3121 3121 3121 3120 3120 3120 3119 3119 3119 3118 3118 3118 3118 3119 3119 3118 3118 3118 3118 3118 3118 3118 3118 3118 3118 3118 3118 3118 3118 3118 3118 3119 3119 3120 3121 3122 3122 3124 3125 3126 3126 3127 3128 3129 3130 3130 3131 3131 3132 3132 3131 3131 3131 3130 3131 3131 3132 3132 3132 3133 3133 3133
3100 3099 3096 3095 3097 3099 3100 3101 3102 3104 3106 3106 3106 3107 3110 3112 3115 3116 3116 3116 3118 3119 3120 3121 3120 3120 3120 3120 3120 3119 3119 3119 3119 3118 3118 3118 3118 3118 3118 3118 3117 3117 3117 3117 3117 3117 3117 3117 3117 3117 3118 3118 3118 3118 3119 3119 3120 3121 3121 3122 3123 3124 3125 3125 3126 3127 3128 3129 3129 3130 3130 3130 3130 3130 3129 3129 3129 3129 3129 3130 3130 3131 3131 3132 3132
3099 3100 3099 3098 3098 3098 3099 3100 3100 3102 3104 3105 3106 3106 3108 3111 3113 3114 3114 3115 3117 3118 3119 3120 3120 3120 3120 3120 3119 3119 3119 3119 3119 3118 3118 3118 3118 3118 3118 3117 3117 3117 3117 3117 3116 3117 3117 3117 3117 3117 3118 3118 3119 3119 3119 3119 3120 3121 3122 3123 3123 3124 3125 3125 3126 3127 3127 3128 3128 3129 3129 3129 3129 3129 3129 3128 3128 3128 3128 3129 3129 3129 3130 3131 3131
3098 3100 3101 3100 3099 3099 3099 3099 3099 3100 3102 3104 3105 3104 3105 3107 3110 3112 3113 3114 3116 3117 3119 3119 3119 3119 3119 3119 3119 3119 3119 3119 3118 3118 3118 3118 3118 3117 3117 3117 3117 3117 3117 3117 3117 3117 3117 3117 3117 3118 3118 3118 3119 3119 3120 3120 3120 3121 3122 3123 3124 3124 3125 3125 3126 3126 3127 3127 3127 3128 3128 3128 3128 3129 3128 3128 3128 3128 3128 3128 3128 3128 3128 3129 3129
3098 3098 3097 3095 3096 3097 3098 3099 3100 3100 3099 3100 3101 3101 3101 3103 3106 3109 3110 3112 3114 3116 3117 3118 3118 3118 3118 3118 3118 3119 3119 3119 3119 3118 3118 3118 3117 3117 3117 3117 3117 3117 3117 3117 3117 3117 3117 3118 3118 3118 3118 3119 3119 3119 3120 3120 3120 3121 3122 3122 3123 3124 3124 3125 3125 3126 3126 3127 3127 3127 3127 3127 3127 3128 3127 3127 3127 3127 3127 3127 3127 3127 3127 3127 3128
3095 3093 3092 3093 3094 3096 3095 3095 3097 3097 3097 3098 3099 3099 3101 3102 3103 3106 3107 3109 3112 3114 3115 3116 3116 3117 3118 3118 3118 3118 3119 3119 3119 3119 3118 3118 3118 3117 3118 3118 3118 3118 3118 3118 3118 3117 3117 3118 3118 3118 3118 3118 3119 3119 3119 3120 3120 3121 3121 3122 3122 3123 3123 3124 3124 3125 3125 3126 3126 3126 3126 3126 3126 3127 3126 3126 3126 3126 3126 3127 3127 3127 3126 3126 3127
3091 3091 3092 3093 3094 3096 3095 3094 3093 3094 3096 3098 3097 3098 3100 3101 3100 3101 3104 3107 3110 3112 3113 3115 3115 3115 3116 3117 3117 3118 3119 3119 3120 3119 3119 3118 3118 3118 3118 3118 3119 3119 3119 3118 3118 3118 3118 3118 3118 3118 3118 3118 3119 3119 3119 3120 3120 3121 3121 3121 3122 3122 3123 3123 3123 3124 3124 3125 3125 3125 3125 3125 3125 3126 3125 3125 3126 3126 3126 3126 3126 3126 3126 3126 3126
3089 3091 3092 3093 3093 3094 3095 3094 3092 3092 3095 3097 3097 3099 3100 3099 3097 3097 3100 3104 3107 3109 3111 3114 3114 3114 3115 3116 3117 3117 3118 3119 3120 3120 3120 3119 3119 3119 3119 3119 3120 3120 3120 3120 3119 3119 3119 3118 3118 3118 3119 3119 3119 3119 3120 3120 3120 3121 3121 3121 3122 3122 3122 3123 3123 3123 3123 3124 3124 3124 3124 3124 3124 3125 3124 3124 3125 3125 3124 3124 3124 3124 3124 3124 3124
3089 3090 3090 3091 3092 3092 3094 3094 3092 3091 3093 3094 3096 3097 3098 3099 3098 3096 3097 3101 3104 3106 3109 3112 3113 3113 3113 3115 3116 3117 3117 3119 3120 3120 3120 3119 3119 3120 3120 3120 3120 3121 3121 3121 3121 3120 3120 3120 3120 3120 3120 3120 3120 3120 3121 3121 3121 3121 3122 3122 3122 3122 3123 3123 3123 3123 3123 3123 3123 3123 3123 3123 3123 3123 3123 3123 3123 3123 3123 3123 3123 3123 3123 3123 3123
3089 3089 3089 3090 3090 3090 3092 3093 3091 3090 3091 3092 3093 3094 3095 3097 3098 3097 3097 3100 3102 3104 3107 3109 3111 3112 3113 3114 3115 3116 3117 3118 3119 3119 3120 3119 3119 3120 3120 3121 3121 3121 3122 3122 3122 3122 3121 3121 3121 3121 3121 3121 3121 3121 3121 3122 3122 3122 3122 3122 3123 3123 3123 3123 3123 3123 3123 3123 3123 3123 3123 3123 3122 3122 3122 3122 3122 3122 3122 3122 3122 3121 3121 3121 3122
3087 3088 3088 3088 3088 3089 3090 3091 3090 3089 3090 3091 3092 3093 3094 3096 3097 3097 3098 3100 3101 3103 3105 3108 3110 3111 3112 3113 3114 3115 3116 3117 3118 3118 3119 3119 3119 3119 3120 3121 3121 3121 3122 3122 3122 3122 3122 3122 3122 3122 3122 3122 3122 3122 3122 3122 3122 3123 3123 3122 3123 3123 3123 3123 3123 3123 3123 3123 3123 3123 3123 3122 3122 3122 3122 3122 3121 3121 3121 3121 3121 3121 3121 3121 3121
3086 3086 3087 3087 3087 3087 3087 3088 3088 3088 3088 3089 3091 3092 3094 3095 3095 3095 3097 3098 3100 3102 3104 3106 3108 3109 3111 3112 3113 3114 3114 3115 3117 3117 3118 3118 3119 3119 3120 3120 3120 3120 3121 3122 3122 3122 3122 3122 3122 3122 3122 3122 3123 3122 3122 3122 3123 3123 3123 3123 3122 3122 3123 3123 3123 3123 3122 3122 3122 3122 3122 3122 3122 3122 3121 3121 3121 3121 3120 3120 3120 3120 3120 3120 3120
3085 3085 3086 3086 3086 3086 3086 3086 3087 3087 3087 3088 3089 3091 3092 3092 3092 3093 3095 3097 3099 3101 3102 3104 3105 3107 3109 3111 3111 3112 3113 3114 3115 3115 3115 3117 3118 3118 3119 3119 3119 3119 3119 3121 3121 3122 3122 3122 3121 3122 3122 3122 3122 3123 3123 3123 3122 3123 3123 3123 3123 3122 3122 3122 3122 3122 3122 3122 3122 3122 3121 3121 3121 3121 3121 3121 3120 3120 3120 3119 3119 3119 3119 3119 3119
3083 3083 3084 3085 3085 3086 3086 3086 3086 3086 3086 3086 3088 3090 3091 3090 3089 3091 3094 3095 3097 3099 3100 3102 3103 3105 3107 3109 3110 3111 3112 3112 3113 3114 3115 3116 3117 3117 3118 3118 3118 3118 3118 3119 3120 3121 3121 3122 3121 3121 3121 3121 3122 3122 3122 3122 3122 3122 3122 3122 3122 3122 3122 3122 3122 3122 3121 3121 3121 3121 3121 3121 3120 3120 3120 3119 3119 3118 3118 3118 3117 3117 3117 3118 3118
3082 3082 3083 3084 3084 3085 3085 3086 3086 3086 3086 3086 3086 3088 3089 3090 3089 3090 3092 3094 3096 3098 3100 3101 3102 3103 3105 3107 3108 3109 3110 3111 3112 3113 3114 3115 3116 3117 3116 3116 3117 3117 3116 3117 3118 3119 3120 3120 3121 3121 3121 3121 3121 3121 3121 3121 3121 3121 3121 3121 3121 3121 3121 3121 3121 3120 3120 3120 3119 3119 3120 3119 3119 3119 3118 3118 3117 3116 3116 3115 3115 3115 3115 3115 3115
3081 3081 3081 3082 3083 3084 3084 3085 3086 3086 3087 3086 3086 3087 3088 3089 3090 3090 3091 3093 3096 3098 3100 3101 3102 3102 3103 3104 3105 3107 3109 3110 3110 3111 3111 3112 3114 3114 3114 3114 3115 3115 3115 3115 3116 3117 3117 3118 3119 3120 3120 3120 3120 3120 3120 3120 3120 3120 3120 3120 3120 3119 3119 3119 3119 3118 3118 3118 3118 3117 3117 3117 3117 3116 3116 3116 3116 3115 3115 3114 3114 3113 3113 3112 3112
3079 3079 3079 3080 3080 3082 3083 3084 3085 3086 3087 3087 3087 3088 3089 3090 3091 3092 3092 3093 3095 3097 3099 3100 3101 3101 3102 3103 3103 3105 3106 3107 3107 3108 3109 3110 3111 3111 3111 3112 3113 3112 3112 3112 3113 3114 3115 3116 3117 3117 3118 3118 3118 3118 3118 3118 3118 3118 3118 3118 3118 3118 3117 3117 3117 3117 3116 3116 3116 3116 3115 3115 3115 3114 3113 3113 3113 3113 3113 3112 3112 3111 3111 3110 3109
3077 3077 3077 3078 3078 3079 3080 3082 3083 3085 3086 3087 3087 3087 3088 3089 3090 3091 3092 3093 3094 3096 3097 3098 3099 3100 3100 3101 3101 3102 3103 3104 3105 3105 3106 3107 3109 3109 3109 3109 3109 3109 3109 3109 3111 3112 3113 3113 3114 3114 3114 3115 3115 3115 3115 3115 3115 3115 3115 3115 3116 3116 3115 3115 3115 3115 3114 3114 3114 3113 3113 3112 3112 3112 3111 3110 3110 3110 3109 3109 3109 3109 3108 3107 3107
3076 3076 3076 3076 3076 3077 3078 3079 3081 3082 3084 3085 3086 3087 3087 3087 3088 3088 3089 3090 3091 3093 3094 3095 3097 3098 3099 3099 3099 3099 3100 3101 3102 3103 3104 3105 3106 3107 3107 3107 3107 3106 3108 3109 3110 3110 3110 3110 3111 3111 3112 3113 3112 3112 3111 3111 3112 3113 3113 3113 3112 3113 3113 3113 3112 3112 3112 3112 3112 3111 3111 3110 3110 3109 3109 3108 3107 3107 3106 3106 3106 3105 3105 3105 3104
3075 3074 3074 3075 3074 3075 3076 3077 3078 3079 3081 3082 3083 3085 3085 3086 3086 3086 3087 3087 3088 3089 3091 3091 3093 3095 3096 3096 3096 3097 3098 3098 3099 3101 3102 3103 3103 3102 3103 3104 3104 3103 3106 3108 3108 3108 3108 3107 3108 3108 3109 3110 3110 3109 3109 3108 3109 3109 3110 3110 3110 3110 3110 3109 3109 3110 3110 3110 3110 3110 3109 3108 3108 3107 3107 3106 3106 3105 3104 3103 3102 3102 3102 3101 3101
3074 3073 3073 3072 3073 3073 3074 3075 3076 3076 3078 3079 3081 3082 3083 3083 3084 3085 3085 3086 3086 3087 3088 3089 3090 3091 3092 3092 3093 3094 3094 3095 3097 3098 3099 3100 3099 3099 3100 3101 3100 3100 3103 3104 3104 3104 3105 3105 3106 3106 3106 3106 3107 3107 3107 3106 3106 3106 3107 3107 3107 3107 3107 3107 3106 3107 3107 3107 3107 3107 3106 3106 3106 3105 3104 3104 3103 3102 3101 3101 3100 3099 3098 3098 3097
3073 3072 3071 3070 3070 3071 3072 3072 3073 3074 3075 3077 3079 3079 3080 3081 3082 3083 3083 3084 3085 3086 3087 3087 3088 3089 3089 3090 3089 3090 3090 3091 3092 3094 3095 3095 3096 3096 3096 3097 3097 3097 3098 3099 3099 3100 3101 3102 3103 3104 3104 3103 3103 3103 3104 3104 3103 3103 3103 3104 3104 3104 3104 3104 3103 3103 3103 3103 3104 3103 3103 3103 3103 3102 3101 3101 3100 3100 3099 3098 3097 3096 3095 3094 3094
3073 3071 3069 3068 3068 3069 3070 3070 3070 3071 3073 3074 3076 3077 3078 3079 3080 3081 3082 3082 3083 3084 3084 3085 3086 3086 3087 3087 3086 3087 3087 3088 3088 3089 3090 3091 3092 3092 3092 3093 3094 3094 3095 3096 3096 3096 3096 3098 3100 3101 3100 3100 3101 3101 3101 3101 3101 3100 3099 3100 3101 3101 3100 3100 3100 3100 3099 3099 3099 3099 3099 3099 3100 3099 3098 3098 3097 3097 3096 3095 3094 3093 3092 3091 3090
3073 3071 3068 3066 3066 3065 3066 3067 3068 3069 3070 3071 3073 3074 3076 3077 3078 3079 3079 3079 3080 3081 3081 3082 3083 3084 3084 3084 3084 3085 3086 3086 3086 3086 3087 3088 3089 3090 3090 3090 3091 3091 3092 3093 3093 3092 3093 3094 3095 3096 3096 3097 3098 3098 3098 3099 3098 3097 3095 3095 3096 3096 3096 3095 3095 3095 3095 3095 3095 3095 3094 3095 3096 3096 3095 3094 3094 3093 3093 3092 3091 3090 3089 3088 3087
3072 3071 3067 3064 3064 3063 3063 3064 3066 3066 3066 3067 3069 3070 3071 3073 3076 3076 3076 3077 3078 3078 3079 3079 3080 3080 3081 3081 3082 3083 3083 3083 3084 3084 3084 3085 3086 3087 3088 3088 3088 3088 3089 3090 3090 3090 3090 3090 3091 3091 3092 3093 3093 3094 3095 3096 3095 3093 3092 3091 3091 3091 3091 3091 3091 3090 3090 3090 3090 3090 3090 3090 3091 3090 3090 3089 3088 3088 3089 3088 3087 3087 3086 3085 3084
3069 3069 3066 3063 3063 3061 3060 3061 3063 3063 3063 3065 3067 3067 3066 3069 3072 3073 3073 3074 3075 3075 3076 3076 3076 3077 3077 3078 3079 3079 3080 3080 3081 3081 3082 3082 3083 3084 3084 3085 3085 3085 3086 3086 3087 3088 3088 3088 3088 3087 3088 3088 3089 3089 3091 3092 3091 3089 3088 3087 3088 3088 3087 3087 3087 3086 3085 3085 3085 3085 3085 3085 3085 3085 3084 3083 3081 3082 3082 3082 3082 3081 3081 3080 3079
3065 3065 3063 3061 3059 3058 3057 3059 3060 3060 3061 3063 3064 3063 3063 3065 3067 3068 3069 3070 3071 3071 3072 3073 3073 3073 3073 3074 3074 3075 3076 3076 3077 3077 3078 3079 3079 3080 3081 3081 3082 3082 3083 3083 3083 3084 3085 3085 3084 3083 3083 3083 3084 3085 3086 3086 3086 3085 3084 3084 3085 3085 3083 3082 3081 3081 3082 3082 3081 3080 3080 3080 3080 3079 3078 3077 3076 3075 3076 3075 3074 3074 3073 3073 3073
3060 3060 3059 3057 3054 3054 3054 3056 3056 3057 3059 3061 3060 3060 3061 3063 3063 3064 3065 3067 3068 3067 3068 3068 3069 3070 3070 3070 3070 3071 3072 3073 3073 3074 3075 3075 3076 3077 3077 3077 3078 3079 3079 3079 3079 3079 3081 3081 3080 3079 3078 3079 3080 3082 3082 3082 3081 3081 3081 3081 3081 3081 3079 3077 3077 3077 3078 3078 3077 3077 3077 3077 3076 3075 3073 3072 3071 3071 3071 3070 3069 3067 3067 3067 3066
3057 3056 3054 3052 3051 3051 3051 3052 3054 3055 3057 3057 3056 3056 3058 3061 3061 3061 3062 3064 3064 3064 3065 3065 3065 3067 3067 3067 3067 3068 3069 3070 3071 3071 3072 3072 3073 3073 3074 3073 3074 3074 3074 3074 3074 3074 3076 3076 3076 3075 3075 3075 3076 3077 3078 3077 3076 3076 3077 3077 3076 3076 3075 3073 3073 3073 3073 3073 3073 3073 3073 3073 3072 3071 3069 3068 3068 3068 3067 3066 3065 3063 3063 3062 3061
3053 3052 3050 3049 3048 3048 3049 3049 3051 3053 3053 3053 3053 3053 3055 3057 3059 3059 3060 3060 3061 3062 3063 3062 3062 3064 3064 3064 3064 3065 3066 3067 3068 3068 3069 3069 3069 3070 3070 3070 3070 3070 3070 3070 3070 3070 3070 3070 3071 3072 3072 3072 3072 3072 3072 3072 3072 3072 3073 3073 3073 3072 3071 3069 3068 3068 3067 3067 3068 3068 3068 3068 3067 3066 3065 3065 3065 3064 3063 3061 3060 3058 3058 3057 3057
3049 3049 3048 3047 3046 3046 3047 3047 3048 3049 3049 3050 3050 3050 3051 3053 3055 3056 3057 3057 3058 3059 3059 3059 3059 3060 3061 3061 3061 3061 3062 3063 3064 3065 3065 3066 3066 3066 3067 3067 3066 3066 3066 3066 3066 3065 3065 3065 3066 3067 3068 3067 3067 3067 3067 3067 3067 3068 3069 3069 3068 3068 3066 3065 3064 3063 3062 3063 3064 3064 3064 3063 3063 3062 3062 3061 3060 3059 3058 3057 3055 3054 3053 3052 3051
3047 3047 3047 3046 3045 3044 3044 3044 3044 3046 3046 3047 3047 3047 3048 3049 3051 3052 3053 3053 3054 3055 3056 3056 3056 3056 3057 3057 3057 3058 3058 3059 3060 3060 3061 3062 3063 3063 3063 3063 3063 3062 3062 3062 3061 3061 3060 3062 3063 3063 3063 3063 3063 3062 3062 3062 3063 3063 3064 3064 3063 3063 3062 3061 3060 3059 3059 3060 3060 3059 3059 3058 3057 3057 3057 3056 3055 3054 3052 3051 3050 3049 3047 3046 3046
3045 3045 3044 3044 3043 3041 3040 3040 3042 3043 3044 3043 3043 3043 3044 3045 3047 3048 3049 3050 3051 3051 3052 3052 3053 3053 3053 3054 3053 3053 3054 3054 3054 3055 3057 3058 3059 3059 3059 3059 3059 3059 3058 3058 3057 3056 3056 3058 3059 3059 3059 3059 3058 3058 3058 3058 3058 3058 3058 3059 3058 3058 3057 3057 3057 3057 3057 3057 3055 3054 3054 3054 3053 3053 3052 3051 3050 3048 3047 3046 3045 3043 3042 3040 3039
3040 3040 3039 3038 3038 3038 3038 3038 3039 3040 3040 3040 3040 3040 3041 3041 3043 3044 3045 3046 3047 3048 3048 3048 3049 3049 3050 3050 3050 3050 3049 3049 3050 3051 3051 3052 3054 3055 3055 3056 3056 3055 3054 3054 3053 3052 3053 3054 3055 3055 3055 3055 3054 3054 3053 3053 3053 3053 3053 3053 3053 3053 3053 3053 3053 3053 3054 3054 3052 3051 3050 3050 3049 3049 3047 3046 3044 3043 3041 3040 3039 3037 3035 3034 3032
3036 3035 3035 3035 3035 3035 3035 3036 3037 3037 3037 3037 3037 3037 3037 3038 3038 3039 3040 3041 3042 3043 3043 3044 3044 3045 3045 3045 3046 3046 3046 3046 3046 3047 3047 3047 3048 3050 3051 3051 3051 3051 3050 3049 3049 3049 3049 3050 3050 3050 3051 3051 3050 3049 3049 3049 3049 3048 3048 3048 3048 3049 3049 3049 3049 3050 3050 3050 3049 3047 3046 3046 3045 3044 3043 3041 3040 3038 3036 3035 3033 3031 3030 3028 3026
3032 3032 3033 3033 3032 3032 3032 3033 3034 3034 3034 3034 3033 3033 3033 3034 3034 3035 3036 3037 3037 3038 3038 3038 3039 3039 3039 3040 3040 3040 3041 3041 3041 3042 3043 3042 3043 3045 3046 3046 3046 3046 3045 3045 3045 3045 3045 3045 3045 3046 3047 3046 3045 3045 3045 3045 3044 3043 3043 3043 3044 3045 3045 3046 3046 3046 3046 3046 3045 3043 3042 3042 3040 3039 3038 3036 3034 3033 3031 3029 3027 3025 3023 3021 3020
3028 3028 3029 3029 3028 3028 3028 3029 3029 3029 3030 3030 3030 3029 3029 3029 3030 3031 3031 3032 3032 3032 3032 3032 3033 3033 3034 3034 3035 3035 3035 3035 3036 3038 3038 3038 3038 3040 3041 3040 3041 3041 3040 3040 3041 3041 3040 3040 3040 3041 3041 3041 3040 3040 3040 3040 3039 3039 3039 3039 3039 3040 3041 3041 3042 3042 3042 3042 3041 3040 3039 3037 3036 3034 3032 3030 3028 3026 3024 3022 3020 3019 3017 3015 3012
3024 3024 3024 3024 3024 3024 3024 3024 3025 3025 3025 3025 3025 3024 3024 3024 3025 3026 3027 3027 3027 3027 3027 3027 3027 3027 3028 3029 3030 3030 3030 3031 3032 3033 3033 3033 3033 3034 3034 3034 3035 3035 3035 3035 3035 3036 3035 3035 3035 3036 3036 3036 3035 3035 3035 3035 3035 3035 3035 3035 3036 3036 3036 3036 3036 3037 3037 3037 3037 3036 3034 3033 3031 3029 3027 3025 3023 3022 3020 3017 3015 3013 3011 3009 3007
3019 3020 3020 3020 3020 3020 3020 3020 3020 3020 3020 3020 3019 3019 3019 3020 3021 3022 3022 3022 3022 3022 3022 3022 3022 3023 3023 3024 3025 3025 3026 3027 3027 3028 3028 3029 3028 3027 3028 3028 3029 3030 3030 3030 3030 3030 3030 3029 3030 3031 3031 3031 3031 3030 3030 3031 3031 3031 3032 3032 3032 3032 3032 3032 3032 3033 3033 3033 3032 3031 3030 3028 3026 3024 3023 3021 3019 3017 3015 3013 3011 3009 3006 3003 3001
3014 3015 3015 3016 3016 3015 3015 3015 3015 3015 3015 3014 3014 3014 3015 3015 3016 3017 3017 3017 3017 3017 3018 3018 3017 3017 3018 3019 3020 3021 3022 3022 3022 3023 3024 3023 3022 3022 3023 3023 3023 3024 3025 3025 3025 3025 3024 3024 3025 3026 3027 3027 3027 3027 3027 3028 3028 3028 3029 3029 3029 3029 3029 3029 3029 3029 3029 3028 3027 3026 3025 3024 3022 3020 3018 3016 3014 3012 3009 3007 3005 3002 3000 2997 2994
3008 3009 3010 3009 3009 3008 3008 3008 3008 3008 3008 3008 3007 3008 3009 3009 3010 3011 3012 3012 3012 3013 3013 3012 3012 3012 3013 3014 3015 3016 3016 3016 3016 3018 3019 3017 3016 3017 3018 3019 3019 3019 3020 3020 3021 3020 3019 3019 3021 3022 3022 3023 3023 3024 3025 3025 3025 3026 3026 3026 3027 3027 3027 3026 3026 3026 3025 3024 3023 3022 3020 3019 3017 3015 3013 3011 3009 3006 3003 3001 2998 2995 2993 2990 2987
3001 3002 3002 3001 3000 2999 2999 2999 2999 3000 3001 3000 3000 3001 3002 3003 3004 3005 3005 3006 3006 3007 3007 3007 3007 3008 3008 3009 3010 3011 3011 3011 3011 3011 3012 3012 3012 3013 3013 3014 3014 3015 3015 3015 3016 3016 3016 3016 3017 3018 3019 3019 3021 3021 3022 3022 3022 3023 3023 3023 3023 3023 3023 3023 3023 3022 3021 3020 3019 3018 3016 3015 3013 3011 3009 3007 3004 3001 2998 2995 2992 2989 2986 2983 2980
2993 2993 2992 2992 2992 2992 2992 2992 2992 2993 2993 2994 2994 2995 2995 2997 2998 2998 2998 2998 2999 3000 3001 3001 3002 3002 3003 3004 3005 3006 3007 3007 3006 3005 3006 3008 3008 3008 3008 3009 3010 3011 3011 3011 3012 3013 3013 3013 3014 3015 3015 3017 3018 3019 3019 3019 3020 3020 3020 3020 3020 3020 3020 3020 3019 3018 3018 3017 3016 3014 3013 3011 3010 3007 3005 3002 3000 2997 2994 2990 2987 2983 2980 2977 2974
2985 2985 2985 2985 2985 2986 2986 2986 2986 2986 2986 2987 2987 2988 2988 2989 2990 2991 2991 2991 2992 2993 2994 2994 2995 2996 2997 2999 3000 3001 3002 3001 3000 3000 3002 3004 3004 3004 3004 3005 3006 3007 3008 3008 3008 3009 3010 3010 3011 3012 3013 3014 3015 3016 3016 3016 3017 3018 3018 3018 3018 3018 3017 3017 3016 3015 3015 3014 3013 3012 3010 3008 3006 3004 3001 2998 2995 2991 2987 2984 2980 2977 2974 2971 2968